TimeGMT,TemperatureF,Dew PointF,Humidity,Sea Level PressureIn,VisibilityMPH,Wind Direction,Wind SpeedMPH,Gust SpeedMPH,PrecipitationIn,Events,Conditions,WindDirDegrees,DateUTC
12:50 AM,42.8,39.2,87,29.92,6.2,NW,5.8,-,N/A,,Partly Cloudy,320,2012-11-18 00:50:00
1:50 AM,42.8,37.4,81,29.92,6.2,NW,5.8,-,N/A,,Partly Cloudy,320,2012-11-18 01:50:00
2:50 AM,42,37,76,29.95,16,NW,6.9,,,,Scattered Clouds,320,2012-11-18 02:50:00
2:50 AM,42.8,37.4,81,29.92,6.2,NW,6.9,-,N/A,,Partly Cloudy,320,2012-11-18 02:50:00
3:50 AM,41.0,35.6,81,29.92,6.2,NW,6.9,-,N/A,,Partly Cloudy,320,2012-11-18 03:50:00
4:50 AM,39.2,35.6,87,29.95,6.2,NW,6.9,-,N/A,,Partly Cloudy,310,2012-11-18 04:50:00
5:50 AM,40,37,84,29.96,16,NNW,3.5,,,,Scattered Clouds,340,2012-11-18 05:50:00
5:50 AM,39.2,37.4,93,29.95,6.2,NNW,3.5,-,N/A,,Partly Cloudy,340,2012-11-18 05:50:00
6:50 AM,39.2,35.6,87,29.95,6.2,NW,5.8,-,N/A,,Partly Cloudy,310,2012-11-18 06:50:00
7:50 AM,35.6,33.8,93,29.95,6.2,WNW,2.3,-,N/A,Fog,Shallow Fog,300,2012-11-18 07:50:00
8:50 AM,37,35,91,30.00,16,SSE,2.3,,,,Scattered Clouds,160,2012-11-18 08:50:00
8:50 AM,37.4,35.6,93,29.98,6.2,SSE,2.3,-,N/A,,Scattered Clouds,160,2012-11-18 08:50:00
9:50 AM,42.8,41.0,93,29.98,6.2,SSE,4.6,-,N/A,,Scattered Clouds,150,2012-11-18 09:50:00
10:50 AM,50.0,42.8,76,29.98,6.2,SSE,4.6,-,N/A,,Scattered Clouds,150,2012-11-18 10:50:00
11:50 AM,48,42,75,29.98,16,SSW,6.9,,,,Partly Cloudy,200,2012-11-18 11:50:00
11:50 AM,48.2,42.8,82,29.95,6.2,SSW,6.9,-,N/A,,Scattered Clouds,200,2012-11-18 11:50:00
12:50 PM,50.0,42.8,76,29.95,6.2,SSW,9.2,-,N/A,,Scattered Clouds,200,2012-11-18 12:50:00
1:50 PM,50.0,42.8,76,29.95,6.2,SSW,10.4,-,N/A,,Scattered Clouds,210,2012-11-18 13:50:00
2:50 PM,49,43,73,29.94,16,SSW,10.4,,,,Partly Cloudy,200,2012-11-18 14:50:00
2:50 PM,48.2,42.8,82,29.92,6.2,SSW,10.4,-,N/A,,Mostly Cloudy,200,2012-11-18 14:50:00
3:50 PM,48.2,42.8,82,29.92,6.2,SSW,10.4,-,N/A,,Mostly Cloudy,200,2012-11-18 15:50:00
4:50 PM,48.2,42.8,82,29.92,6.2,SSW,11.5,-,N/A,,Mostly Cloudy,200,2012-11-18 16:50:00
5:50 PM,49,43,71,29.92,16,SSW,13.8,,,,Mostly Cloudy,200,2012-11-18 17:50:00
5:50 PM,48.2,42.8,82,29.89,6.2,SSW,13.8,26.5,N/A,,Mostly Cloudy,200,2012-11-18 17:50:00
6:50 PM,50.0,44.6,82,29.89,6.2,SSW,15.0,27.6,N/A,,Scattered Clouds,200,2012-11-18 18:50:00
7:50 PM,50.0,44.6,82,29.89,6.2,SSW,15.0,27.6,N/A,,Mostly Cloudy,200,2012-11-18 19:50:00
8:50 PM,50,44,74,29.89,16,SSW,20.7,,,,Mostly Cloudy,200,2012-11-18 20:50:00
8:50 PM,50.0,44.6,82,29.86,6.2,SSW,20.7,33.4,N/A,,Scattered Clouds,200,2012-11-18 20:50:00
9:50 PM,50.0,44.6,82,29.86,6.2,SSW,16.1,28.8,N/A,,Scattered Clouds,200,2012-11-18 21:50:00
10:50 PM,51.8,46.4,82,29.83,6.2,SSW,15.0,28.8,N/A,,Mostly Cloudy,200,2012-11-18 22:50:00
11:50 PM,51,46,79,29.84,12,SSW,19.6,,,,Mostly Cloudy,200,2012-11-18 23:50:00
11:50 PM,51.8,46.4,82,29.83,6.2,SSW,19.6,32.2,N/A,,Mostly Cloudy,200,2012-11-18 23:50:00